Other Public Products
Issued by NWS Grand Forks, ND

Home | Current Version | Previous Version | Graphics & Text | Print | Product List | Glossary On
Versions: 1 2 3 4 5 6 7 8 9 10 11 12 13 14 15 16 17 18 19 20 21 22 23 24 25 26 27 28 29 30 31 32 33 34 35 36 37 38 39 40 41 42 43 44 45 46 47 48 49 50
000
FPUS83 KFGF 220910
OPUFGF
PRAIRIE TO PINES WEATHER ROUNDUP
NATIONAL WEATHER SERVICE EASTERN NORTH DAKOTA/GRAND FORKS ND
400 AM CDT FRI SEP 22 2017

 **SATELLITE DATA USED TO AUGMENT SKY COVER AT AUTOMATED STATIONS**
 *****  WEATHER ACROSS EASTERN NORTH DAKOTA  *****

CITY           SKY/WX    TMP DP  RH WIND       PRES   REMARKS
GRAND FORKS    FAIR      57  54  89 N12       29.78R
GRAND FORKS AF FAIR      56  52  86 N9        29.79R
GRAND CITY NWS NOT AVBL
BUXTON         NOT AVBL
DEVILS LAKE    FAIR      54  50  86 N16       29.83R
FARGO          FAIR      70  68  93 NW3       29.72R
WAHPETON ARPT  FAIR      68  63  83 CALM      29.71F
$$

 *****  WEATHER ACROSS CENTRAL AND WESTERN NORTH DAKOTA  *****

CITY           SKY/WX    TMP DP  RH WIND       PRES   REMARKS
JAMESTOWN      FAIR      55  51  86 N13       29.75R
BISMARCK       FAIR      57  48  72 N16G22    29.79S
MINOT          FAIR      50  40  68 N12       29.89R
MINOT AFB      FAIR      49  40  71 N10       29.89R
GARRISON         N/A     51  39  63 N12G23    29.86R
WILLISTON      LGT RAIN  47  39  74 N16       29.92F
DICKINSON      CLOUDY    51  38  60 N15G21    29.86R
HETTINGER      FAIR      49  36  61 N13G23    29.81F
$$

 *****  OTHER OBSERVATIONS NORTHEAST NORTH DAKOTA  *****

CITY           SKY/WX    TMP DP  RH WIND       PRES   REMARKS
WALHALLA       FAIR     N/A N/A N/A N9G17     29.82S
LANGDON        FAIR      52  52 100 N13G21    29.84S
CAVALIER       FAIR      55  52  88 N13       29.80S
GRAFTON        FAIR      57  52  82 N12       29.82R
CANDO          FAIR      50  50 100 N14       29.85S
FORT TOTTEN      N/A     55  51  86 N6        29.95S
ROLLA          FAIR      48  43  81 N14G21    29.88R
RUGBY          FAIR      48  46  93 N10       29.82F
 ***** THE ABOVE OBSERVATIONS ARE NON NWS ARE NOT QUALITY
        CONTROLLED AND MAY MIS-REPORT RAIN FOR SNOW...
$$

 *****  OTHER OBSERVATIONS SOUTHEAST NORTH DAKOTA *****

CITY           SKY/WX    TMP DP  RH WIND       PRES   REMARKS
COOPERSTOWN    FAIR      55  54  94 N14       29.77S
VALLEY CITY    FAIR      57  59 100 N10       29.76R
OAKES          NOT AVBL
GWINNER        SUNNY     64  64 100 CALM      29.69F FOG
SHEYENNE NWR     N/A     66  66 100 NE5       29.95S
BUFFALO        NOT AVBL
WYNDMERE       NOT AVBL
 ***** THE ABOVE OBSERVATIONS ARE NON NWS ARE NOT QUALITY
       CONTROLLED AND MAY MIS-REPORT RAIN FOR SNOW...
$$

  *****  WEATHER ACROSS NORTHERN MINNESOTA  *****

CITY           SKY/WX    TMP DP  RH WIND       PRES   REMARKS
FLAG ISLAND    FAIR      63  55  77 SE5       29.75F
WARROAD        FAIR      61  55  82 SE7       29.78S
ROSEAU           N/A     61  55  82 SE6       29.79R
HALLOCK          N/A     57  52  82 N14G20    29.79R
THF RVR FALLS  FAIR      60  57  89 N6        29.78F
HALSTAD        NOT AVBL
FOSSTON        FAIR      64  61  88 SE5       29.78R
BAUDETTE       CLOUDY    60  59  96 SE7       29.80R
WASKISH        FAIR      63  63 100 E5        29.81R
CROOKSTON      FAIR      63  59  88 NE5       29.76S
$$
  *****  WEATHER ACROSS CENTRAL AND WEST MINNESOTA  *****

CITY           SKY/WX    TMP DP  RH WIND       PRES   REMARKS
BEMIDJI        FAIR      61  61 100 E6        29.80S FOG
PARK RAPIDS    FAIR      68  66  93 E8        29.78R
WADENA         FAIR      66  66 100 E6        29.75S FOG
DETROIT LAKES  FAIR      68  64  88 CALM      29.76F
MOORHEAD       FAIR      66  64  94 CALM      29.73R FOG
FERGUS FALLS   TSTM      72  72 100 SW9       29.74S
ELBOW LAKE     TSTM      65  61  88 NW3       29.78R
MORRIS MN      FAIR      73  72  94 S5        29.75R THUNDER
STAPLES        FAIR      66  66 100 E5        29.75F
WHEATON        CLOUDY    66  63  88 E8        29.74F
$$
  *****  WEATHER ELSEWHERE ACROSS MINNESOTA  *****

CITY           SKY/WX    TMP DP  RH WIND       PRES   REMARKS
DULUTH         FAIR      60  59  96 SE5       29.87R
INTRNTL FALLS  MOCLDY    61  59  93 CALM      29.84R
ELY            FAIR      64  63  94 S3        29.87R
CLOQUET        MOCLDY    61  57  88 NW5       29.88R
BRAINERD       FAIR      70  69  97 SE6       29.80S
HIBBING        LGT RAIN  60  59  96 CALM      29.85S
ALEXANDRIA     FAIR      74  71  91 S15G22    29.76R
SAINT CLOUD    FAIR      74  71  91 SE8       29.79S
MINNEAPOLIS    FAIR      74  70  87 SE10      29.83R
$$

  *****  WEATHER ACROSS SOUTH DAKOTA  *****

CITY           SKY/WX    TMP DP  RH WIND       PRES   REMARKS
SIOUX FALLS    FAIR      78  73  84 S14       29.72S
BROOKINGS      FAIR      73  71  93 SE13      29.73R
WATERTOWN      FAIR      72  71  97 SE12      29.70R
HURON          FAIR      75  71  87 SE14      29.61S
SISSETON         N/A     68  66  93 SE9       29.70F
ABERDEEN       FAIR      66  65  96 N6        29.66S
MITCHELL       FAIR      79  71  76 S16       29.63F
PIERRE         FAIR      65  63  93 SE9       29.57S
MOBRIDGE       FAIR      60  50  69 N17G25    29.65F
RAPID CITY     NOT AVBL
$$

  *****  SOME WEATHER IN NEARBY STATES *****

CITY           SKY/WX    TMP DP  RH WIND       PRES   REMARKS
GLASGOW MT     CLOUDY    47  33  58 E7        29.98F
GREAT FALLS MT LGT RAIN  38  31  76 N10       30.05R
CHEYENNE WY    FAIR      50  36  58 N15G24    29.79S
SCOTTSBLUFF NE FAIR      52  40  63 N5        29.71R
OMAHA NE       FAIR      79  71  76 S16       29.82S
DES MOINES IA  FAIR      78  70  76 S9        29.89S
DAVENPORT IA   FAIR      74  68  81 S8        30.02R
CHICAGO IL     MOCLDY    76  68  76 S6        30.04R
EAU CLAIRE WI  FAIR      73  67  81 S9        29.90S
LA CROSSE WI   NOT AVBL
$$

  *****  SOME NATIONAL WEATHER *****

CITY           SKY/WX    TMP DP  RH WIND       PRES   REMARKS
LA GUARDIA NY  MOCLDY    69  50  50 N10       29.98S
RALEIGH NC     FAIR      63  63 100 CALM      30.06R
ATLANTA GA     FAIR      71  65  81 E6        30.04R
NEW ORLEANS LA FAIR      76  75  97 CALM      29.95F
OKLAHOMA CITY  FAIR      73  68  84 S9        29.90F
ALBUQUERQUE NM MOCLDY    66  37  34 S7        29.94S
SALT LAKE CITY CLOUDY    43  39  86 E3        29.83F
LOS ANGELES CA FAIR      61  54  77 E8        29.84R
BOISE ID       FAIR      44  38  79 W6        29.85R
SEATTLE WA     CLOUDY    53  48  83 SE6       30.02S
$$

*** WEATHER ACROSS MANITOBA...SASKATCHEWAN AND ONTARIO ***
                ***ONTARIO***

CITY           SKY/WX    TMP DP  RH WIND       PRES   REMARKS
GERALDTON      FOG       59  59 100 SE5       29.91F VSB 1/2
THUNDER BAY    MOCLDY    52  52 100 SW2       29.89S
SIOUX LOOKOUT  PTCLDY    54  52  94 SE3       29.83F
TORONTO        CLEAR     63  59  88 NW2       30.13R
BIG TROUT LK   CLOUDY    52  50  93 E2        29.78F
PICKLE LAKE    NOT AVBL
DRYDEN         CLEAR     57  55  94 S6        29.82F
KENORA         PTCLDY    59  55  88 SE9       29.78F
$$
                *** MANITOBA***

CITY           SKY/WX    TMP DP  RH WIND       PRES   REMARKS
BRANDON        MOCLDY    46  41  81 N9        29.89F
DAUPHIN        CLEAR     41  37  87 W7        29.93R
ISLAND LAKE    MOCLDY    54  52  94 SW6       29.79S
PILOT MOUND      N/A     50  45  81 N14         N/A
THE PAS        MOCLDY    46  43  87 N13       29.88R
THOMPSON       CLOUDY    39  39 100 W8        29.79R
WINNIPEG       NOT AVBL
LYNN LAKE      CLOUDY    39  37  93 N12G17    29.87R
CHURCHILL      DRIZZLE   45  45 100 NE9       29.76R FOG
GILLAM         CLEAR     41  41 100 SW3       29.74S
$$
                ***SASKATCHEWAN***

CITY           SKY/WX    TMP DP  RH WIND       PRES   REMARKS
ESTEVAN        CLOUDY    46  37  71 N10       29.93F
KINDERSLEY     CLOUDY    39  37  93 SW3       30.04R
LLOYDMINSTER   CLOUDY    39  39 100 N6        30.02F FOG
PRINCE ALBERT  PTCLDY    37  37 100 W3        29.99R
REGINA         CLOUDY    37  34  87 W5        29.98F
YORKTON        PTCLDY    39  36  87 W7        29.96R



USA.gov is the U.S. government's official web portal to all federal, state and local government web resources and services.